TimeEST,TemperatureF,Dew PointF,Humidity,Sea Level PressureIn,VisibilityMPH,Wind Direction,Wind SpeedMPH,Gust SpeedMPH,PrecipitationIn,Events,Conditions,WindDirDegrees,DateUTC
12:53 AM,69.1,66.9,93,30.14,10.0,ESE,5.8,-,N/A,,Clear,120,2013-12-06 05:53:00
1:53 AM,69.1,66.9,93,30.12,10.0,North,-9999.0,-,N/A,,Clear,0,2013-12-06 06:53:00
2:53 AM,66.9,66.0,97,30.12,5.0,ESE,3.5,-,N/A,,Clear,110,2013-12-06 07:53:00
2:58 AM,66.9,66.0,97,30.12,1.5,Calm,Calm,-,N/A,,Partly Cloudy,0,2013-12-06 07:58:00
3:01 AM,66.0,64.9,96,30.12,0.8,East,3.5,-,N/A,,Mist,90,2013-12-06 08:01:00
3:09 AM,66.0,64.9,96,30.12,0.5,East,3.5,-,N/A,Fog,Fog,80,2013-12-06 08:09:00
3:53 AM,64.9,64.0,97,30.12,0.5,East,4.6,-,N/A,Fog,Fog,80,2013-12-06 08:53:00
4:53 AM,64.0,64.0,100,30.13,0.8,East,4.6,-,N/A,,Mist,100,2013-12-06 09:53:00
5:53 AM,63.0,63.0,100,30.14,0.8,ENE,3.5,-,N/A,,Mist,60,2013-12-06 10:53:00
6:22 AM,63.0,62.1,97,30.15,1.2,East,4.6,-,N/A,,Mostly Cloudy,80,2013-12-06 11:22:00
6:35 AM,63.0,62.1,97,30.15,1.2,East,5.8,-,N/A,,Mostly Cloudy,80,2013-12-06 11:35:00
6:40 AM,63.0,62.1,97,30.15,2.0,East,5.8,-,N/A,,Scattered Clouds,80,2013-12-06 11:40:00
6:50 AM,64.4,62.6,94,30.16,5.0,East,5.8,-,N/A,,Partly Cloudy,80,2013-12-06 11:50:00
6:53 AM,64.0,63.0,96,30.16,5.0,East,5.8,-,N/A,,Partly Cloudy,80,2013-12-06 11:53:00
7:24 AM,63.0,62.1,97,30.17,2.0,ENE,4.6,-,N/A,,Clear,70,2013-12-06 12:24:00
7:38 AM,64.0,63.0,96,30.17,4.0,East,4.6,-,N/A,,Clear,80,2013-12-06 12:38:00
7:53 AM,66.0,64.9,96,30.18,6.0,East,4.6,-,N/A,,Clear,90,2013-12-06 12:53:00
8:53 AM,73.9,70.0,87,30.19,10.0,ESE,6.9,-,N/A,,Clear,120,2013-12-06 13:53:00
9:53 AM,79.0,71.1,77,30.20,10.0,SE,11.5,18.4,N/A,,Clear,130,2013-12-06 14:53:00
10:53 AM,82.9,70.0,65,30.19,10.0,South,16.1,23.0,N/A,,Partly Cloudy,170,2013-12-06 15:53:00
11:53 AM,82.9,68.0,60,30.17,10.0,SSE,11.5,-,N/A,,Partly Cloudy,150,2013-12-06 16:53:00
12:53 PM,86.0,68.0,55,30.14,10.0,SE,13.8,-,N/A,,Scattered Clouds,140,2013-12-06 17:53:00
1:53 PM,87.1,66.9,51,30.12,10.0,South,12.7,-,N/A,,Scattered Clouds,180,2013-12-06 18:53:00
2:53 PM,84.0,66.0,55,30.11,10.0,SSE,6.9,-,N/A,,Scattered Clouds,160,2013-12-06 19:53:00
3:53 PM,82.9,69.1,63,30.12,10.0,WSW,12.7,-,N/A,,Partly Cloudy,250,2013-12-06 20:53:00
4:53 PM,80.1,70.0,71,30.12,10.0,WSW,9.2,-,N/A,,Clear,240,2013-12-06 21:53:00
5:53 PM,77.0,69.1,76,30.14,10.0,SW,4.6,-,N/A,,Clear,230,2013-12-06 22:53:00
6:53 PM,73.9,69.1,85,30.16,10.0,SW,3.5,-,N/A,,Scattered Clouds,230,2013-12-06 23:53:00
7:53 PM,73.0,69.1,87,30.17,10.0,NW,3.5,-,N/A,,Clear,320,2013-12-07 00:53:00
8:53 PM,71.1,68.0,90,30.19,10.0,Calm,Calm,-,N/A,,Scattered Clouds,0,2013-12-07 01:53:00
9:53 PM,69.1,66.9,93,30.20,10.0,East,3.5,-,N/A,,Clear,100,2013-12-07 02:53:00
10:53 PM,69.1,66.9,93,30.20,10.0,Calm,Calm,-,N/A,,Clear,0,2013-12-07 03:53:00
11:53 PM,66.0,64.0,93,30.20,10.0,ESE,3.5,-,N/A,,Clear,110,2013-12-07 04:53:00